Location: Haram ta Haram Freeway
(35.0583°N, 51.4202°E)
Time: 14:27:07
(UTC+04:30)

CAS-4A - Pass Details

Date: 05 July 2020
Orbit: 528 x 545 km, 43.0° (Epoch: 02 August)

Event Time Altitude Azimuth Distance (km) Brightness Sun altitude
Exits shadow 04:57:34 14° 251° (WSW) 1,534 ? -10.8°
Maximum altitude 05:00:59 71° 334° (NNW) 565 ? -10.2°
Drops below altitude 10° 05:05:03 10° 59° (ENE) 1,776 ? -9.6°
Sets 05:07:17 0° 62° (ENE) 2,665 ? -9.2°
